LEOIR Weather Reports


time (UTC)temp
C
wind
direction
speed
KPH
gust
KPH
rain 1hr
cm
rain 24hr
cm
rain mn
cm
humidity
%
barometer
mb
20260508053009 9 138 0.0 3.2 0.03 0.64 0.36 93 1013.3
20260508051511 9 130 0.0 6.4 0.03 0.61 0.33 93 1012.9
20260508050002 10 133 0.0 0.0 0.05 0.61 0.33 93 1012.9
20260508044600 10 142 0.0 6.4 0.05 0.61 0.33 93 1012.8
20260508043100 10 176 0.0 1.6 0.10 0.61 0.33 93 1012.8
20260508041554 10 137 0.0 0.0 0.13 0.58 0.30 93 1012.8
20260508034549 10 165 0.0 1.6 0.18 0.56 0.28 93 1012.5
20260508033046 10 140 0.0 0.0 0.15 0.51 0.23 92 1012.4
20260508031551 10 150 0.0 4.8 0.10 0.46 0.18 92 1012.2
20260508030041 10 156 0.0 3.2 0.08 0.41 0.13 92 1012.1
20260508024538 10 190 1.6 12.9 0.05 0.38 0.10 92 1012.2
20260508023037 11 141 0.0 6.4 0.05 0.36 0.08 92 1012.0
20260508021536 11 129 0.0 0.0 0.05 0.36 0.08 92 1011.9
20260508020033 11 144 0.0 6.4 0.03 0.33 0.05 92 1011.9
20260508014527 11 140 0.0 9.7 0.03 0.33 0.05 92 1011.9
20260508013026 11 135 0.0 6.4 0.00 0.30 0.03 92 1011.9
20260508011525 11 110 0.0 4.8 0.00 0.30 0.03 92 1012.0
20260508010027 11 127 0.0 14.5 0.00 0.30 0.03 92 1011.9
20260508004531 11 168 0.0 4.8 0.00 0.30 0.03 92 1011.8
20260508003017 11 139 0.0 0.0 0.00 0.30 0.03 92 1011.7
20260508001515 11 120 0.0 6.4 0.00 0.30 0.03 91 1011.6
20260508000012 11 148 0.0 8.0 0.00 0.30 0.03 91 1011.5
20260507234520 12 138 0.0 4.8 0.03 0.30 0.03 91 1011.4
20260507233013 12 174 0.0 8.0 0.03 0.30 0.03 90 1011.4
20260507231507 12 177 0.0 0.0 0.03 0.30 0.03 90 1011.3
20260507230006 12 153 0.0 0.0 0.00 0.28 0.00 90 1011.4
20260507224508 12 152 0.0 0.0 0.00 0.28 0.00 90 1011.3
20260507223003 12 152 0.0 0.0 0.00 0.28 0.00 90 1011.4
20260507221604 12 133 0.0 16.1 0.00 0.28 0.00 90 1011.4
20260507220058 12 149 0.0 0.0 0.00 0.28 0.28 90 1011.3
20260507214556 12 137 0.0 4.8 0.00 0.28 0.28 91 1011.2
20260507213053 13 145 0.0 8.0 0.03 0.28 0.28 91 1011.2
20260507211558 13 142 0.0 4.8 0.03 0.28 0.28 90 1011.1
20260507210049 13 144 0.0 0.0 0.05 0.28 0.28 90 1011.0
20260507204543 13 146 0.0 14.5 0.08 0.28 0.28 88 1010.9
20260507203041 14 139 0.0 8.0 0.10 0.25 0.25 87 1010.8
20260507201536 15 122 0.0 12.9 0.15 0.25 0.25 87 1010.7
20260507200034 15 136 0.0 0.0 0.18 0.23 0.23 87 1010.6
20260507194534 15 129 0.0 0.0 0.15 0.20 0.20 86 1010.5
20260507193030 16 126 0.0 0.0 0.10 0.15 0.15 85 1010.3
20260507191529 16 104 0.0 0.0 0.10 0.10 0.10 85 1010.2
20260507190026 16 103 0.0 0.0 0.05 0.05 0.05 85 1010.1
20260507184524 16 103 0.0 0.0 0.05 0.05 0.05 82 1009.8
20260507183022 16 103 0.0 0.0 0.05 0.05 0.05 81 1009.6
20260507181519 16 132 0.0 8.0 0.00 0.00 0.00 78 1009.4
20260507180016 17 129 0.0 4.8 0.00 0.00 0.00 76 1009.1
20260507174536 17 123 0.0 3.2 0.00 0.00 0.00 74 1009.0
20260507173016 18 130 0.0 1.6 0.00 0.00 0.00 71 1008.8
20260507171510 18 148 0.0 0.0 0.00 0.00 0.00 67 1008.7
20260507170010 18 150 0.0 8.0 0.00 0.00 0.00 67 1008.5
20260507164507 18 129 0.0 19.3 0.00 0.00 0.00 67 1008.4
20260507163006 19 162 3.2 17.7 0.00 0.00 0.00 65 1008.4
20260507161505 19 125 0.0 8.0 0.00 0.00 0.00 65 1008.2
20260507160007 19 142 1.6 14.5 0.00 0.00 0.00 64 1008.1
20260507154502 20 169 3.2 16.1 0.00 0.00 0.00 65 1008.1
20260507153001 20 171 3.2 17.7 0.00 0.00 0.00 64 1008.0
20260507151601 20 200 3.2 16.1 0.00 0.00 0.00 64 1007.8
20260507150059 21 112 0.0 8.0 0.00 0.00 0.00 62 1007.7
20260507144558 21 137 3.2 16.1 0.00 0.00 0.00 61 1007.8
20260507143113 21 102 0.0 12.9 0.00 0.00 0.00 62 1007.7
20260507141617 21 146 1.6 20.9 0.00 0.00 0.00 59 1007.5
20260507140111 22 128 0.0 17.7 0.00 0.00 0.00 57 1007.6
20260507134554 22 102 0.0 19.3 0.00 0.00 0.00 53 1007.3
20260507133057 23 94 0.0 8.0 0.00 0.00 0.00 47 1007.1
20260507131614 23 92 0.0 11.3 0.00 0.00 0.00 46 1007.0
20260507130048 25 91 0.0 17.7 0.00 0.00 0.00 44 1006.9
20260507124552 25 41 0.0 11.3 0.00 0.00 0.00 42 1006.7
20260507123046 26 86 0.0 8.0 0.00 0.00 0.00 40 1006.8
20260507121544 27 65 0.0 1.6 0.00 0.00 0.00 38 1006.6
20260507120044 27 101 0.0 4.8 0.00 0.00 0.00 39 1006.6
20260507114537 26 58 0.0 4.8 0.00 0.00 0.00 40 1006.7
20260507113100 25 73 0.0 3.2 0.00 0.00 0.00 42 1006.8
20260507111534 25 353 0.0 6.4 0.00 0.00 0.00 41 1006.8
20260507110036 25 325 0.0 4.8 0.00 0.00 0.00 43 1006.8
20260507104527 25 90 0.0 4.8 0.00 0.00 0.00 44 1006.8
20260507103026 24 335 0.0 3.2 0.00 0.00 0.00 43 1006.7
20260507101526 25 4 0.0 6.4 0.00 0.00 0.00 42 1006.6
20260507100032 25 15 0.0 6.4 0.00 0.00 0.00 42 1006.6
20260507094518 25 275 1.6 9.7 0.00 0.00 0.00 42 1006.4
20260507093016 25 56 0.0 4.8 0.00 0.00 0.00 43 1006.5
20260507091515 24 13 0.0 11.3 0.00 0.00 0.00 42 1006.6
20260507090008 23 48 0.0 3.2 0.00 0.00 0.00 44 1006.5
20260507084503 23 92 0.0 4.8 0.00 0.00 0.00 45 1006.5
20260507083005 23 42 0.0 3.2 0.00 0.00 0.00 45 1006.4
20260507081558 23 50 0.0 3.2 0.00 0.00 0.00 47 1006.2
20260507080055 22 57 0.0 0.0 0.00 0.00 0.00 50 1006.3
20260507074551 22 24 0.0 0.0 0.00 0.00 0.00 51 1006.3
20260507073045 21 38 0.0 0.0 0.00 0.00 0.00 55 1006.3
20260507071543 20 35 0.0 0.0 0.00 0.00 0.00 58 1006.1
20260507070039 19 333 0.0 0.0 0.00 0.00 0.00 62 1006.0
20260507064538 18 32 0.0 0.0 0.00 0.00 0.00 64 1006.1
20260507063028 17 60 0.0 0.0 0.00 0.00 0.00 65 1005.9
20260507061533 17 35 0.0 0.0 0.00 0.00 0.00 67 1006.1
20260507060036 17 41 0.0 0.0 0.00 0.00 0.00 67 1005.9
20260507054535 17 325 0.0 0.0 0.00 0.00 0.00 68 1005.9